STARLINK-34936

Last updated on Mon Oct 20 2025 00:02:08 GMT+0000 (Coordinated Universal Time)

1 65898U 25224S 25292.25002315 -.01233567 00000+0 -54757-2 0 9997 2 65898 53.1506 313.3639 0001177 81.4324 103.8337 15.86152628 3152
UTC large
Height (km)
Speed (km/s)
/
Latitude / Longitude
Inclination (degrees)
Orbital Period (minutes)
Azimuth
Elevation
Range (km)
Doppler Factor

Next 0 passes for location: London (51.5072 / 0.1276)

Sorry there are no passes over London.